Location: *
(45.9500°N, 9.0833°E)
Time: 20:18:57
(UTC+00:00)

Vanguard 2 Rocket - Pass Details

Date: 18 June 2021
Orbit: 555 x 3325 km, 32.9° (Epoch: 30 July)

Event Time Altitude Azimuth Distance (km) Brightness Sun altitude
Rises 00:11:09 0° 271° (W) 6,223 11.1 -19.9°
Reaches altitude 10° 00:16:45 10° 261° (W) 4,702 10.3 -19.6°
Enters shadow 00:25:26 24° 216° (SW) 2,808 8.8 -19.3°
Maximum altitude 00:25:40 24° 214° (SW) 2,783 - -19.3°
Drops below altitude 10° 00:31:41 10° 163° (SSE) 3,051 - -19.0°
Sets 00:34:27 0° 149° (SSE) 3,688 - -18.9°
